Volver al catálogo

CZ-6A DEB

ActivoPO
NORAD 56604·DEBRIS·🇨🇳 China

Lanzado Nov 11, 2022 desde Taiyuan Satellite Launch Center

Loading…

Próximos Pases (próximas 24 horas)

TLE

ActualizadoSource: Space-Track

Época: Sep 14, 2026, 06:14 UTC

1 56604U 22151AEC 26257.26002352  .00709799  00000-0  78172-2 0  9992
2 56604  98.6055 359.9193 0023762 274.6145  85.2395 15.60557388192073

Sigue CZ-6A DEB en tiempo real con AllMySat

Download on the App Store